Weather History for KSMS - March, 2013

Change the Weather History Date:

Tuesday, March 12, 2013

  Actual Average Record
Temperature  
Mean Temperature 64 °F -  
Max Temperature 73 °F 68 °F 82 °F (2014)
Min Temperature 53 °F 41 °F 28 °F (2011)
Degree Days  
Heating Degree Days 1    
Growing Degree Days 14 (Base 50)    
Moisture  
Dew Point 55 °F    
Average Humidity 77    
Maximum Humidity 100    
Minimum Humidity 33    
Precipitation  
Precipitation 0.40 in - - ()
Sea Level Pressure  
Sea Level Pressure 29.86 in    
Wind  
Wind Speed 9 mph (SW)    
Max Wind Speed 14 mph    
Max Gust Speed 21 mph    
Visibility 8 miles    
Events Rain    
Averages and records for this station are not official NWS values.
T = Trace of Precipitation, MM = Missing Value Source: NWS Daily Summary

Daily Weather History Graph

Daily Weather History Graph

Search for Another Location

Airport or City:

Trip Planner

Search our weather history database for the weather conditions in past years. The results will help you decide how hot, cold, wet, or windy it might be!

Date:

Astronomy

Mar. 12, 2013 Rise Set
Actual Time 7:35 AM EDT 7:27 PM EDT
Civil Twilight 7:10 AM EDT 7:51 PM EDT
Nautical Twilight 6:41 AM EDT 8:20 PM EDT
Astronomical Twilight 6:12 AM EDT 8:50 PM EDT
Moon 7:45 AM EDT (3/12) 8:34 PM EDT (3/12)
Length of Visible Light 12h 41m
Length of Day
11h 51m
New Moon, 1% of the Moon is Illuminated
Mar 12
New Moon
Mar 19
First Quarter
Mar 27
Full
Apr 3
Last Quarter
Apr 10
New

Hourly Weather History & Observations

Time (EDT) Temp. Dew Point Humidity Pressure Visibility Wind Dir Wind Speed Gust Speed Precip Events Conditions
12:15 AM 62.6 °F 57.2 °F 82% 29.91 in 10.0 mi South 10.4 mph - N/A   Partly Cloudy
12:35 AM 62.6 °F 57.2 °F 82% 29.91 in 10.0 mi South 11.5 mph - N/A   Clear
12:55 AM 62.6 °F 57.2 °F 82% 29.89 in 10.0 mi South 10.4 mph 17.3 mph N/A   Clear
1:35 AM 62.6 °F 57.2 °F 82% 29.87 in 10.0 mi SSE 10.4 mph - N/A   Clear
1:55 AM 62.6 °F 57.2 °F 82% 29.88 in 10.0 mi South 8.1 mph - N/A   Clear
2:15 AM 62.6 °F 59.0 °F 88% 29.87 in 8.0 mi South 8.1 mph - N/A Rain Light Rain
2:35 AM 62.6 °F 59.0 °F 88% 29.86 in 5.0 mi SSE 6.9 mph - N/A Rain Rain
2:55 AM 60.8 °F 60.8 °F 100% 29.86 in 9.0 mi South 6.9 mph - 0.01 in Rain Light Rain
3:15 AM 60.8 °F 60.8 °F 100% 29.85 in 5.0 mi South 6.9 mph - N/A Rain Light Rain
3:35 AM 60.8 °F 60.8 °F 100% 29.85 in 5.0 mi South 6.9 mph - 0.02 in Rain Light Rain
3:55 AM 60.8 °F 60.8 °F 100% 29.84 in 4.0 mi South 8.1 mph - 0.05 in Rain Rain
4:15 AM 62.6 °F 62.6 °F 100% 29.84 in 5.0 mi South 8.1 mph - 0.01 in Rain Light Rain
4:35 AM 62.6 °F 62.6 °F 100% 29.84 in 7.0 mi South 11.5 mph 17.3 mph 0.01 in Rain Light Rain
4:55 AM 62.6 °F 62.6 °F 100% 29.84 in 3.0 mi SSW 11.5 mph - 0.03 in Rain Light Rain
5:15 AM 62.6 °F 62.6 °F 100% 29.83 in 4.0 mi SSW 11.5 mph 17.3 mph 0.02 in Rain Rain
5:35 AM 62.6 °F 62.6 °F 100% 29.83 in 3.0 mi South 11.5 mph 16.1 mph 0.09 in Rain Rain
5:55 AM 62.6 °F 62.6 °F 100% 29.84 in 6.0 mi SSW 9.2 mph 17.3 mph 0.13 in Rain Light Rain
6:15 AM 62.6 °F 62.6 °F 100% 29.84 in 3.0 mi SSW 10.4 mph 17.3 mph 0.04 in Rain Rain
6:35 AM 62.6 °F 62.6 °F 100% 29.84 in 4.0 mi SSW 11.5 mph 18.4 mph 0.09 in Rain Rain
6:55 AM 62.6 °F 62.6 °F 100% 29.84 in 5.0 mi SSW 12.7 mph 18.4 mph 0.11 in Rain Light Rain
7:15 AM 62.6 °F 62.6 °F 100% 29.84 in 9.0 mi SSW 10.4 mph 17.3 mph N/A Rain Light Rain
7:35 AM 62.6 °F 62.6 °F 100% 29.84 in 10.0 mi SSW 8.1 mph - N/A   Mostly Cloudy
7:55 AM 62.6 °F 62.6 °F 100% 29.83 in 10.0 mi South 6.9 mph - N/A   Mostly Cloudy
8:15 AM 62.6 °F 62.6 °F 100% 29.83 in 10.0 mi South 9.2 mph - N/A   Mostly Cloudy
8:35 AM 62.6 °F 62.6 °F 100% 29.84 in 10.0 mi SSW 8.1 mph - N/A   Mostly Cloudy
8:55 AM 62.6 °F 62.6 °F 100% 29.84 in 8.0 mi SSW 6.9 mph - N/A Rain Light Rain
9:15 AM 62.6 °F 62.6 °F 100% 29.84 in 6.0 mi SSW 8.1 mph - N/A   Mostly Cloudy
9:35 AM 62.6 °F 62.6 °F 100% 29.85 in 3.0 mi SSW 10.4 mph - 0.03 in Rain Light Rain
9:55 AM 62.6 °F 62.6 °F 100% 29.85 in 2.5 mi SSW 10.4 mph - 0.06 in Rain Light Rain
10:15 AM 62.6 °F 62.6 °F 100% 29.85 in 2.5 mi SW 12.7 mph 18.4 mph 0.01 in Rain Light Rain
10:35 AM 62.6 °F 62.6 °F 100% 29.86 in 2.5 mi SW 12.7 mph 16.1 mph 0.01 in Rain Light Rain
10:55 AM 62.6 °F 62.6 °F 100% 29.86 in 6.0 mi SW 11.5 mph - 0.01 in   Overcast
11:15 AM 62.6 °F 62.6 °F 100% 29.86 in 3.0 mi WSW 10.4 mph - N/A Rain Light Rain
11:35 AM 62.6 °F 62.6 °F 100% 29.87 in 9.0 mi SW 10.4 mph - N/A   Overcast
11:55 AM 64.4 °F 64.4 °F 100% 29.87 in 10.0 mi SSW 8.1 mph - N/A   Overcast
12:15 PM 64.4 °F 64.4 °F 100% 29.87 in 10.0 mi WSW 10.4 mph - N/A   Overcast
12:35 PM 66.2 °F 62.6 °F 88% 29.86 in 10.0 mi SW 11.5 mph 18.4 mph N/A   Mostly Cloudy
12:55 PM 66.2 °F 62.6 °F 88% 29.86 in 10.0 mi SW 13.8 mph 17.3 mph N/A   Mostly Cloudy
1:15 PM 68.0 °F 60.8 °F 78% 29.85 in 10.0 mi WSW 9.2 mph - N/A   Overcast
1:35 PM 69.8 °F 59.0 °F 68% 29.85 in 10.0 mi WSW 11.5 mph - N/A   Mostly Cloudy
1:55 PM 69.8 °F 59.0 °F 68% 29.84 in 10.0 mi West 10.4 mph 16.1 mph N/A   Partly Cloudy
2:15 PM 71.6 °F 57.2 °F 60% 29.83 in 10.0 mi WSW 11.5 mph 18.4 mph N/A   Partly Cloudy
2:35 PM 71.6 °F 55.4 °F 57% 29.82 in 10.0 mi West 9.2 mph - N/A   Partly Cloudy
2:55 PM 71.6 °F 55.4 °F 57% 29.82 in 10.0 mi WSW 9.2 mph - N/A   Clear
3:15 PM 71.6 °F 53.6 °F 53% 29.81 in 10.0 mi West 6.9 mph 17.3 mph N/A   Clear
3:35 PM 71.6 °F 53.6 °F 53% 29.80 in 10.0 mi West 4.6 mph - N/A   Clear
3:55 PM 73.4 °F 51.8 °F 47% 29.81 in 10.0 mi West 8.1 mph - N/A   Clear
4:15 PM 73.4 °F 44.6 °F 36% 29.81 in 10.0 mi West 9.2 mph 19.6 mph N/A   Clear
4:35 PM 73.4 °F 44.6 °F 36% 29.81 in 10.0 mi West 11.5 mph 18.4 mph N/A   Clear
4:55 PM 73.4 °F 44.6 °F 36% 29.82 in 10.0 mi West 11.5 mph 20.7 mph N/A   Clear
5:15 PM 71.6 °F 42.8 °F 35% 29.82 in 10.0 mi NNW 13.8 mph 17.3 mph N/A   Clear
5:35 PM 71.6 °F 41.0 °F 33% 29.83 in 10.0 mi NW 10.4 mph 16.1 mph N/A   Clear
5:55 PM 69.8 °F 42.8 °F 38% 29.83 in 10.0 mi WNW 9.2 mph 16.1 mph N/A   Clear
6:15 PM 69.8 °F 39.2 °F 33% 29.84 in 10.0 mi West 6.9 mph - N/A   Clear
6:35 PM 68.0 °F 41.0 °F 37% 29.85 in 10.0 mi West 5.8 mph - N/A   Clear
6:55 PM 66.2 °F 44.6 °F 46% 29.86 in 10.0 mi NW 10.4 mph 16.1 mph N/A   Clear
7:15 PM 64.4 °F 41.0 °F 42% 29.87 in 10.0 mi WNW 10.4 mph - N/A   Clear
7:35 PM 64.4 °F 44.6 °F 49% 29.88 in 10.0 mi West 5.8 mph - N/A   Clear
7:55 PM 62.6 °F 46.4 °F 55% 29.89 in 10.0 mi West 4.6 mph - N/A   Clear
8:15 PM 60.8 °F 46.4 °F 59% 29.89 in 10.0 mi West 3.5 mph - N/A   Clear
8:35 PM 59.0 °F 46.4 °F 63% 29.90 in 10.0 mi West 4.6 mph - N/A   Clear
8:55 PM 59.0 °F 46.4 °F 63% 29.91 in 10.0 mi West 5.8 mph - N/A   Clear
9:15 PM 59.0 °F 46.4 °F 63% 29.92 in 10.0 mi West 3.5 mph - N/A   Clear
9:35 PM 57.2 °F 46.4 °F 67% 29.92 in 10.0 mi West 3.5 mph - N/A   Clear
9:55 PM 57.2 °F 46.4 °F 67% 29.93 in 10.0 mi West 4.6 mph - N/A   Clear
10:15 PM 57.2 °F 46.4 °F 67% 29.93 in 10.0 mi West 4.6 mph - N/A   Clear
10:35 PM 55.4 °F 46.4 °F 72% 29.94 in 10.0 mi NW 4.6 mph - N/A   Clear
10:55 PM 55.4 °F 46.4 °F 72% 29.95 in 10.0 mi West 5.8 mph - N/A   Clear
11:15 PM 55.4 °F 44.6 °F 67% 29.96 in 10.0 mi NW 6.9 mph - N/A   Clear
11:35 PM 55.4 °F 44.6 °F 67% 29.96 in 10.0 mi North 4.6 mph - N/A   Clear
11:55 PM 53.6 °F 42.8 °F 67% 29.97 in 10.0 mi WNW 4.6 mph - N/A   Clear